Location: Juiz de Fora
(21.7500°S, 43.3330°W)
Time: 08:50:30
(UTC-03:00)

Hubble Space Telescope - Pass Details

Date: 21 June 2024
Orbit: 510 x 513 km, 28.5° (Epoch: 17 July)

Event Time Altitude Azimuth Distance (km) Brightness Sun altitude
Rises 18:26:11 0° 280° (W) 2,616 6.0 -15.2°
Reaches altitude 10° 18:28:27 10° 276° (W) 1,733 4.6 -15.7°
Maximum altitude 18:32:23 58° 196° (SSW) 604 0.9 -16.5°
Enters shadow 18:33:54 34° 132° (SE) 867 1.3 -16.9°
